Time,TemperatureF,DewpointF,PressureIn,WindDirection,WindDirectionDegrees,WindSpeedMPH,WindSpeedGustMPH,Humidity,HourlyPrecipIn,Conditions,Clouds,dailyrainin,SolarRadiationWatts/m^2,SoftwareType,DateUTC
2013-07-29 00:02:00,58.0,57.0,-100.00,SSE,153,1.0,5.0,95,0.00,,,0.00,0.000000,,2013-07-29 04:02:00,
2013-07-29 00:33:00,58.0,57.0,-100.00,NNE,27,2.0,4.0,97,0.00,,,0.00,0.000000,,2013-07-29 04:33:00,
2013-07-29 00:43:00,58.0,57.0,-100.00,NNE,27,2.0,4.0,97,0.00,,,0.00,0.000000,,2013-07-29 04:43:00,
2013-07-29 00:53:00,58.0,57.0,-100.00,NNE,27,2.0,4.0,97,0.00,,,0.00,0.000000,,2013-07-29 04:53:00,
2013-07-29 01:02:00,58.0,57.0,-100.00,NNE,27,2.0,4.0,97,0.00,,,0.00,0.000000,,2013-07-29 05:02:00,
2013-07-29 01:32:00,58.0,57.0,-100.00,NNE,30,1.0,4.0,98,0.00,,,0.00,0.000000,,2013-07-29 05:32:00,
2013-07-29 01:43:00,58.0,57.0,-100.00,NNE,30,1.0,4.0,98,0.00,,,0.00,0.000000,,2013-07-29 05:43:00,
2013-07-29 01:53:00,58.0,57.0,-100.00,NNE,30,1.0,4.0,98,0.00,,,0.00,0.000000,,2013-07-29 05:53:00,
2013-07-29 02:02:00,58.0,57.0,-100.00,NNE,30,1.0,4.0,98,0.00,,,0.00,0.000000,,2013-07-29 06:02:00,
2013-07-29 02:33:00,57.0,56.0,-100.00,NE,36,3.0,5.0,97,0.00,,,0.00,0.000000,,2013-07-29 06:33:00,
2013-07-29 02:43:00,57.0,56.0,-100.00,NE,36,3.0,5.0,97,0.00,,,0.00,0.000000,,2013-07-29 06:43:00,
2013-07-29 02:52:00,57.0,56.0,-100.00,NE,36,3.0,5.0,97,0.00,,,0.00,0.000000,,2013-07-29 06:52:00,
2013-07-29 03:03:00,57.0,56.0,-100.00,NE,36,3.0,5.0,97,0.00,,,0.00,0.000000,,2013-07-29 07:03:00,
2013-07-29 03:33:00,57.0,57.0,-100.00,NNE,32,3.0,5.0,99,0.00,,,0.00,0.000000,,2013-07-29 07:33:00,
2013-07-29 03:43:00,57.0,57.0,-100.00,NNE,32,3.0,5.0,99,0.00,,,0.00,0.000000,,2013-07-29 07:43:00,
2013-07-29 03:53:00,57.0,57.0,-100.00,NNE,32,3.0,5.0,99,0.00,,,0.00,0.000000,,2013-07-29 07:53:00,
2013-07-29 04:02:00,57.0,57.0,-100.00,NNE,32,3.0,5.0,99,0.00,,,0.00,0.000000,,2013-07-29 08:02:00,
2013-07-29 04:33:00,56.0,56.0,-100.00,NE,36,3.0,5.0,99,0.00,,,0.00,0.000000,,2013-07-29 08:33:00,
2013-07-29 04:42:00,56.0,56.0,-100.00,NE,36,3.0,5.0,99,0.00,,,0.00,0.000000,,2013-07-29 08:42:00,
2013-07-29 04:52:00,56.0,56.0,-100.00,NE,36,3.0,5.0,99,0.00,,,0.00,0.000000,,2013-07-29 08:52:00,
2013-07-29 05:02:00,56.0,56.0,-100.00,NE,36,3.0,5.0,99,0.00,,,0.00,0.000000,,2013-07-29 09:02:00,
2013-07-29 05:33:00,56.0,56.0,-100.00,NE,47,3.0,5.0,100,0.00,,,0.00,0.000000,,2013-07-29 09:33:00,
2013-07-29 05:43:00,56.0,56.0,-100.00,NE,47,3.0,5.0,100,0.00,,,0.00,0.000000,,2013-07-29 09:43:00,
2013-07-29 05:53:00,56.0,56.0,-100.00,NE,47,3.0,5.0,100,0.00,,,0.00,0.000000,,2013-07-29 09:53:00,
2013-07-29 06:04:00,56.0,56.0,-100.00,NE,47,3.0,5.0,100,0.00,,,0.00,0.000000,,2013-07-29 10:04:00,
2013-07-29 06:05:00,56.0,55.0,-100.00,NE,44,4.0,6.0,97,0.00,,,0.00,0.000000,,2013-07-29 10:05:00,
2013-07-29 06:50:00,56.0,55.0,-100.00,NE,44,4.0,6.0,97,0.00,,,0.00,0.000000,,2013-07-29 10:50:00,
2013-07-29 06:55:00,56.0,55.0,-100.00,NE,44,4.0,6.0,97,0.00,,,0.00,0.000000,,2013-07-29 10:55:00,
2013-07-29 07:05:00,57.0,54.0,-100.00,NE,43,5.0,6.0,91,0.00,,,0.00,9.000000,,2013-07-29 11:05:00,
2013-07-29 07:38:00,57.0,54.0,-100.00,NE,43,5.0,6.0,91,0.00,,,0.00,9.000000,,2013-07-29 11:38:00,
2013-07-29 07:48:00,57.0,54.0,-100.00,NE,43,5.0,6.0,91,0.00,,,0.00,9.000000,,2013-07-29 11:48:00,
2013-07-29 07:59:00,57.0,54.0,-100.00,NE,43,5.0,6.0,91,0.00,,,0.00,9.000000,,2013-07-29 11:59:00,
2013-07-29 08:37:00,58.0,52.0,-100.00,NE,39,4.0,6.0,80,0.00,,,0.00,86.000000,,2013-07-29 12:37:00,
2013-07-29 08:49:00,58.0,52.0,-100.00,NE,39,4.0,6.0,80,0.00,,,0.00,86.000000,,2013-07-29 12:49:00,
2013-07-29 08:58:00,58.0,52.0,-100.00,NE,39,4.0,6.0,80,0.00,,,0.00,86.000000,,2013-07-29 12:58:00,
2013-07-29 09:04:00,58.0,52.0,-100.00,NE,39,4.0,6.0,80,0.00,,,0.00,86.000000,,2013-07-29 13:04:00,
2013-07-29 09:05:00,64.0,52.0,-100.00,NE,49,2.0,5.0,65,0.00,,,0.00,176.000000,,2013-07-29 13:05:00,
2013-07-29 09:45:00,64.0,52.0,-100.00,NE,49,2.0,5.0,65,0.00,,,0.00,176.000000,,2013-07-29 13:45:00,
2013-07-29 09:57:00,64.0,52.0,-100.00,NE,49,2.0,5.0,65,0.00,,,0.00,176.000000,,2013-07-29 13:57:00,
2013-07-29 13:05:00,76.0,52.0,-100.00,SW,227,2.0,8.0,44,0.00,,,0.00,906.000000,,2013-07-29 17:05:00,
2013-07-29 13:43:00,76.0,52.0,-100.00,SW,227,2.0,8.0,44,0.00,,,0.00,906.000000,,2013-07-29 17:43:00,
2013-07-29 14:00:00,76.0,52.0,-100.00,SW,227,2.0,8.0,44,0.00,,,0.00,906.000000,,2013-07-29 18:00:00,
2013-07-29 14:05:00,76.0,53.0,-100.00,West,274,3.0,10.0,45,0.00,,,0.00,985.000000,,2013-07-29 18:05:00,
2013-07-29 14:47:00,76.0,53.0,-100.00,West,274,3.0,10.0,45,0.00,,,0.00,985.000000,,2013-07-29 18:47:00,
2013-07-29 15:00:00,76.0,53.0,-100.00,West,274,3.0,10.0,45,0.00,,,0.00,985.000000,,2013-07-29 19:00:00,
2013-07-29 15:05:00,77.0,57.0,-100.00,North,351,3.0,7.0,50,0.00,,,0.00,970.000000,,2013-07-29 19:05:00,
2013-07-29 15:40:00,77.0,57.0,-100.00,North,351,3.0,7.0,50,0.00,,,0.00,970.000000,,2013-07-29 19:40:00,
2013-07-29 15:48:00,77.0,57.0,-100.00,North,351,3.0,7.0,50,0.00,,,0.00,970.000000,,2013-07-29 19:48:00,
2013-07-29 16:05:00,77.0,53.0,-100.00,NNW,328,3.0,8.0,43,0.00,,,0.00,905.000000,,2013-07-29 20:05:00,
2013-07-29 16:49:00,77.0,53.0,-100.00,NNW,328,3.0,8.0,43,0.00,,,0.00,905.000000,,2013-07-29 20:49:00,
2013-07-29 16:58:00,77.0,53.0,-100.00,NNW,328,3.0,8.0,43,0.00,,,0.00,905.000000,,2013-07-29 20:58:00,
2013-07-29 17:05:00,75.0,55.0,-100.00,SW,217,2.0,6.0,50,0.00,,,0.00,687.000000,,2013-07-29 21:05:00,
2013-07-29 17:49:00,75.0,55.0,-100.00,SW,217,2.0,6.0,50,0.00,,,0.00,687.000000,,2013-07-29 21:49:00,
2013-07-29 18:00:00,75.0,55.0,-100.00,SW,217,2.0,6.0,50,0.00,,,0.00,687.000000,,2013-07-29 22:00:00,
2013-07-29 18:05:00,71.0,49.0,-100.00,SSW,211,1.0,5.0,45,0.00,,,0.00,296.000000,,2013-07-29 22:05:00,
2013-07-29 18:39:00,71.0,49.0,-100.00,SSW,211,1.0,5.0,45,0.00,,,0.00,296.000000,,2013-07-29 22:39:00,
2013-07-29 18:47:00,71.0,49.0,-100.00,SSW,211,1.0,5.0,45,0.00,,,0.00,296.000000,,2013-07-29 22:47:00,
2013-07-29 18:57:00,71.0,49.0,-100.00,SSW,211,1.0,5.0,45,0.00,,,0.00,296.000000,,2013-07-29 22:57:00,
2013-07-29 19:05:00,66.0,53.0,-100.00,NE,46,1.0,3.0,62,0.00,,,0.00,182.000000,,2013-07-29 23:05:00,
2013-07-29 19:48:00,66.0,53.0,-100.00,NE,46,1.0,3.0,62,0.00,,,0.00,182.000000,,2013-07-29 23:48:00,
2013-07-29 19:58:00,66.0,53.0,-100.00,NE,46,1.0,3.0,62,0.00,,,0.00,182.000000,,2013-07-29 23:58:00,
2013-07-29 20:35:00,62.0,43.0,-100.00,NE,45,2.0,4.0,50,0.00,,,0.00,66.000000,,2013-07-30 00:35:00,
2013-07-29 20:51:00,62.0,43.0,-100.00,NE,45,2.0,4.0,50,0.00,,,0.00,66.000000,,2013-07-30 00:51:00,
2013-07-29 20:57:00,62.0,43.0,-100.00,NE,45,2.0,4.0,50,0.00,,,0.00,66.000000,,2013-07-30 00:57:00,
2013-07-29 21:05:00,59.0,46.0,-100.00,NE,42,4.0,6.0,61,0.00,,,0.00,15.000000,,2013-07-30 01:05:00,
2013-07-29 22:01:00,59.0,46.0,-100.00,NE,42,4.0,6.0,61,0.00,,,0.00,15.000000,,2013-07-30 02:01:00,
2013-07-29 22:39:00,59.0,48.0,-100.00,NE,53,2.0,5.0,68,0.00,,,0.00,0.000000,,2013-07-30 02:39:00,
2013-07-29 22:47:00,59.0,48.0,-100.00,NE,53,2.0,5.0,68,0.00,,,0.00,0.000000,,2013-07-30 02:47:00,
2013-07-29 23:56:00,60.0,53.0,-100.00,NE,47,3.0,4.0,77,0.00,,,0.00,0.000000,,2013-07-30 03:56:00,